Wind_Speed
12 10 8 6 4 2 2 2 0 1 3 4 6 7 9 10 9 9 8 8 7 8 8 7 7 7 7 6 6 7 7 7 7 7 7 7 7 7 7 6 6 6 6 5
12 10 8 7 6 4 2 1 1 2 3 3 3 5 7 8 9 9 8 8 6 6 7 7 7 7 6 6 6 6 6 7 6 6 6 7 6 6 6 6 6 6 6 6
12 10 10 8 7 6 4 3 2 3 5 5 4 5 6 7 8 8 8 7 6 4 5 6 7 6 5 5 5 5 6 6 6 6 6 6 6 6 6 6 5 5 6 6
13 13 13 10 8 7 6 5 5 6 8 8 6 6 5 6 7 7 7 7 6 4 3 4 5 5 5 5 5 5 5 5 5 5 5 5 5 5 5 6 6 6 6 5
14 14 14 12 10 9 8 8 8 8 9 9 9 7 4 6 6 6 6 7 6 5 4 4 3 3 4 5 5 5 5 5 5 5 5 5 5 5 6 6 6 6 6 6
14 15 15 14 11 11 9 10 11 11 11 11 10 9 5 5 6 6 5 5 5 4 4 3 2 3 4 4 5 5 5 5 5 5 5 5 5 5 5 6 6 7 6 6
15 14 14 15 13 12 11 11 11 11 11 10 11 11 8 6 6 6 5 5 5 5 4 4 4 4 4 5 5 5 5 5 5 5 5 5 5 5 5 6 7 7 7 7
15 15 14 14 13 12 13 13 14 12 11 11 12 13 9 8 7 7 6 7 6 5 5 5 6 6 5 5 5 5 5 6 6 6 6 5 6 6 6 6 7 8 8 9
15 15 15 14 14 14 14 15 15 14 13 13 13 12 10 10 9 8 7 7 6 6 6 6 6 6 5 4 4 5 6 6 7 7 7 7 7 7 7 7 8 9 9 10
16 17 17 16 16 17 16 16 17 16 15 14 13 12 10 9 10 9 8 7 7 6 6 7 6 6 6 5 5 6 6 7 7 8 8 7 7 7 7 7 8 9 9 10
19 19 18 18 18 17 16 16 17 18 18 17 16 13 11 11 11 10 11 10 9 8 7 8 8 8 8 7 7 7 8 9 9 9 9 9 9 8 8 8 9 10 11 11
20 21 20 19 18 18 18 17 18 19 18 17 17 15 13 13 12 12 12 12 12 11 9 9 9 9 9 9 9 9 9 9 10 10 10 10 10 10 10 11 11 11 12 13
21 22 21 21 20 20 20 19 19 19 18 17 18 17 16 14 13 14 14 14 13 12 11 11 10 11 11 11 12 11 11 11 11 11 11 12 12 12 12 13 13 13 14 14
23 24 23 22 21 21 21 20 20 20 19 18 18 16 16 15 15 15 16 16 14 13 13 13 13 12 13 14 13 13 13 13 13 13 13 13 14 15 15 15 15 16 16 16
25 25 25 24 23 22 22 23 22 21 20 19 18 17 16 16 16 17 17 17 16 17 16 16 16 16 15 15 15 15 15 15 15 15 15 15 16 16 17 17 17 18 18 18
28 28 26 25 25 24 24 24 22 21 21 21 20 19 19 19 18 19 19 19 20 20 19 19 19 18 18 17 17 17 17 17 17 17 17 17 18 18 18 19 19 20 20 20
29 29 28 27 27 26 26 24 23 23 22 21 22 21 20 20 19 20 20 20 20 21 21 21 21 20 20 20 19 20 20 20 19 19 19 20 20 20 21 20 21 21 21 21
30 30 30 28 28 30 26 25 25 25 24 23 22 22 22 23 22 22 22 22 22 21 22 22 22 22 21 22 22 22 22 22 22 22 22 22 23 23 23 23 22 22 22 22
32 31 31 31 30 30 28 26 26 26 26 26 25 24 24 24 24 25 24 24 24 24 24 23 22 22 23 24 25 24 25 25 26 25 25 25 24 24 24 24 24 24 24 25
33 33 32 32 32 32 29 28 28 28 28 27 26 25 25 26 27 26 26 26 26 26 26 26 25 25 25 25 26 27 27 27 27 27 27 27 26 26 26 25 26 26 26 26
32 33 32 32 33 33 30 29 30 31 30 29 29 28 27 28 28 29 29 28 28 27 27 28 28 27 27 27 27 28 28 29 29 28 28 28 28 27 27 27 27 27 28 28
32 32 33 34 35 34 30 29 30 31 31 30 30 30 30 30 30 31 31 30 30 29 29 29 29 28 29 29 29 29 29 29 29 29 29 29 29 28 28 28 28 29 29 29
33 33 34 35 36 34 32 31 31 31 31 32 32 32 31 31 31 32 31 31 30 30 30 30 30 29 29 30 30 29 29 29 29 28 29 29 29 29 29 29 29 30 30 30
35 35 36 36 36 35 34 33 32 32 32 32 33 32 32 33 33 33 31 30 30 30 30 30 30 29 29 29 30 30 30 30 29 29 29 30 30 30 30 30 31 31 30 30
35 35 35 35 35 35 35 34 33 33 33 33 33 33 33 34 34 34 33 31 30 30 30 31 30 29 29 28 28 29 29 29 29 29 30 30 30 31 31 31 31 31 31 31
34 35 36 36 36 36 34 34 33 33 33 34 35 34 34 34 34 33 31 31 31 30 30 30 30 29 28 28 29 29 28 29 30 29 30 30 30 30 31 31 31 32 32 31
Wind_Direction
191 188 178 163 164 150 152 170 188 343 3 353 5 8 11 13 12 16 15 21 31 34 37 38 44 45 46 47 49 48 43 41 40 39 38 35 36 37 38 41 43 40 40 41
197 195 182 180 181 188 208 261 276 288 307 313 344 358 360 9 12 9 5 6 18 29 32 34 45 41 39 41 43 41 37 37 36 33 28 25 25 25 27 31 32 30 30 30
207 195 195 193 196 210 234 256 248 256 258 268 306 338 344 351 1 3 358 1 11 16 18 25 26 32 33 33 36 35 33 27 24 25 20 18 17 18 17 16 14 14 17 20
209 204 206 210 213 229 247 250 242 241 251 258 278 301 341 351 354 357 357 358 354 352 1 17 21 27 27 25 23 22 16 14 11 12 12 14 12 10 7 4 2 0 1 0
210 211 216 216 221 236 249 246 236 235 242 250 252 271 328 343 344 341 341 347 350 335 344 2 8 15 20 20 12 7 5 2 2 3 5 7 4 1 359 357 355 352 348 350
216 220 224 221 222 234 245 245 237 236 238 247 248 258 280 323 326 331 334 333 335 334 324 335 331 345 7 5 357 357 3 6 2 360 356 353 352 350 351 356 352 347 341 341
220 224 223 223 225 232 242 242 243 240 239 246 249 253 264 286 298 312 322 320 322 318 319 321 320 332 339 340 344 350 356 0 357 352 347 346 348 348 346 346 343 342 343 340
225 223 222 225 232 240 249 252 251 249 248 247 244 250 259 268 279 287 299 310 317 320 312 314 314 314 320 323 330 343 350 355 355 352 347 345 345 346 342 337 336 337 335 334
228 224 220 225 232 240 246 250 254 253 255 250 244 245 254 264 275 288 299 305 309 311 311 308 305 306 308 310 324 333 343 345 345 345 341 337 335 331 331 332 333 334 332 330
231 230 222 226 230 234 243 251 251 246 249 248 248 247 261 273 278 278 287 294 303 301 299 298 301 305 310 306 313 323 327 332 332 330 330 331 328 324 325 329 330 329 327 324
237 236 227 225 229 234 240 247 250 245 249 246 247 249 252 267 274 275 283 292 294 292 295 301 298 297 302 304 305 311 315 319 322 321 319 319 319 318 318 321 322 322 320 318
241 241 236 231 232 233 237 244 248 249 248 243 248 249 254 263 268 271 280 286 299 296 293 293 289 287 289 294 296 300 303 307 310 312 312 310 312 314 315 315 314 312 312 312
239 241 239 234 232 232 235 240 246 250 249 248 252 251 250 258 264 271 276 281 290 290 288 292 289 286 286 289 290 292 295 299 301 304 306 306 308 308 310 309 308 306 307 309
237 241 240 237 233 233 237 241 244 248 252 253 255 253 252 255 261 270 276 277 280 284 286 286 286 290 288 286 284 286 288 293 295 298 300 301 303 304 305 305 304 302 303 305
238 239 239 239 234 234 237 237 239 243 250 255 253 256 258 256 265 271 274 278 279 284 286 285 284 287 288 286 281 281 284 288 291 293 295 297 299 299 300 301 300 301 301 301
239 240 241 243 240 238 238 237 238 241 247 251 253 255 260 264 268 271 276 279 282 284 285 284 283 284 284 282 281 281 283 285 287 290 292 293 295 297 296 296 297 299 300 300
240 244 243 242 241 240 239 238 239 241 245 250 252 255 258 259 268 270 274 278 282 285 284 284 283 283 283 281 282 281 280 282 283 285 289 291 293 294 293 294 295 296 297 296
242 245 246 246 243 241 240 240 242 242 243 246 250 254 256 259 262 265 271 277 281 283 284 286 286 284 282 281 281 280 281 279 279 282 283 285 288 290 291 291 293 294 294 293
240 243 245 246 246 244 242 242 245 246 248 247 248 253 256 257 259 264 269 274 279 283 283 285 285 282 282 281 281 281 280 278 278 280 283 284 286 288 290 290 290 291 292 293
240 242 244 246 247 248 246 245 245 247 249 247 249 252 255 258 260 264 270 274 279 281 281 282 283 283 282 281 281 280 281 280 279 278 280 283 285 288 288 289 290 291 291 291
239 241 243 245 249 251 250 247 246 247 250 249 249 252 256 259 262 267 271 274 277 276 279 280 280 281 282 282 281 281 281 280 279 279 279 280 282 285 286 288 290 291 292 291
238 241 243 246 248 250 251 249 249 250 251 253 252 254 257 260 262 265 269 271 274 275 277 280 280 281 282 283 283 283 282 279 277 278 279 280 281 283 284 285 288 290 290 291
240 242 244 247 249 250 251 252 251 250 250 252 253 255 256 259 262 264 267 269 271 273 276 278 280 281 283 282 282 283 282 279 278 277 278 278 280 281 282 285 288 289 289 291
241 243 246 248 249 248 248 249 249 249 250 253 254 256 258 259 263 265 266 268 270 273 275 277 280 281 282 282 281 282 280 278 277 276 276 277 278 280 282 285 287 289 289 290
242 244 245 246 247 247 247 248 249 248 249 251 253 256 258 261 265 265 267 268 271 274 276 277 280 280 281 281 282 282 280 278 277 276 276 277 278 280 281 284 287 289 290 290
241 243 244 245 246 246 246 247 249 250 252 252 254 257 258 262 263 264 266 268 271 272 274 276 278 279 279 281 283 283 282 279 277 277 277 278 279 281 282 284 285 287 289 289
Height
5922 5925 5926 5927 5927 5927 5927 5927 5928 5929 5928 5928 5928 5927 5927 5926 5925 5924 5923 5922 5921 5920 5919 5918 5917 5916 5915 5914 5914 5913 5912 5911 5910 5909 5908 5907 5906 5905 5905 5904 5902 5901 5900 5899
5922 5924 5925 5925 5926 5926 5926 5927 5927 5928 5927 5927 5927 5927 5927 5926 5925 5924 5923 5922 5921 5920 5920 5919 5917 5917 5916 5915 5914 5913 5912 5911 5910 5909 5908 5907 5906 5905 5905 5904 5902 5901 5900 5899
5919 5923 5923 5923 5924 5925 5925 5926 5927 5926 5926 5926 5927 5927 5926 5925 5924 5924 5923 5922 5921 5920 5920 5919 5918 5917 5916 5916 5915 5914 5913 5912 5911 5910 5908 5907 5906 5905 5904 5903 5902 5901 5900 5899
5917 5919 5920 5920 5922 5923 5923 5924 5925 5925 5925 5925 5925 5925 5925 5924 5923 5923 5922 5922 5921 5920 5919 5919 5918 5917 5917 5916 5914 5913 5913 5912 5910 5909 5908 5907 5906 5905 5904 5903 5902 5900 5899 5898
5915 5916 5917 5918 5919 5920 5921 5922 5922 5923 5923 5923 5923 5923 5924 5923 5922 5922 5921 5920 5920 5919 5919 5918 5917 5917 5916 5915 5914 5913 5912 5911 5910 5909 5908 5907 5906 5905 5903 5902 5900 5899 5898 5897
5911 5913 5914 5915 5917 5918 5919 5919 5920 5920 5921 5921 5922 5921 5922 5921 5921 5920 5920 5919 5919 5918 5917 5917 5917 5916 5915 5914 5914 5913 5911 5910 5909 5908 5907 5906 5905 5903 5902 5900 5899 5898 5896 5895
5908 5910 5911 5912 5914 5916 5916 5917 5918 5918 5918 5919 5919 5918 5920 5919 5919 5919 5919 5918 5917 5917 5916 5916 5915 5915 5914 5913 5912 5911 5910 5909 5908 5907 5906 5905 5904 5902 5901 5899 5898 5897 5895 5894
5904 5907 5908 5910 5911 5912 5913 5915 5916 5916 5916 5916 5916 5915 5918 5917 5916 5917 5917 5916 5916 5915 5915 5914 5914 5913 5912 5912 5911 5910 5909 5908 5907 5906 5905 5904 5902 5901 5900 5898 5897 5895 5894 5892
5900 5903 5905 5906 5908 5909 5910 5910 5912 5913 5912 5912 5912 5913 5914 5914 5914 5914 5914 5914 5913 5913 5913 5912 5912 5912 5911 5910 5910 5908 5907 5906 5905 5904 5903 5902 5901 5899 5898 5896 5895 5894 5892 5891
5896 5899 5901 5903 5904 5905 5907 5907 5908 5908 5909 5909 5909 5910 5911 5911 5911 5911 5911 5911 5911 5911 5910 5910 5910 5910 5909 5909 5908 5907 5906 5905 5904 5902 5901 5900 5898 5897 5896 5895 5893 5892 5890 5889
5891 5894 5897 5898 5899 5901 5902 5903 5903 5904 5905 5905 5906 5909 5909 5909 5909 5908 5908 5908 5908 5908 5908 5907 5908 5908 5907 5907 5906 5905 5904 5903 5901 5900 5899 5898 5896 5895 5893 5892 5891 5889 5888 5886
5887 5889 5891 5894 5895 5896 5897 5898 5899 5900 5901 5901 5902 5906 5905 5905 5905 5906 5906 5906 5905 5905 5905 5905 5905 5904 5904 5904 5903 5902 5901 5900 5899 5897 5896 5895 5893 5892 5890 5889 5888 5886 5885 5883
5882 5884 5886 5889 5892 5892 5892 5893 5895 5896 5897 5898 5898 5902 5901 5901 5901 5902 5902 5902 5902 5902 5901 5901 5901 5900 5900 5900 5899 5899 5898 5897 5896 5894 5893 5891 5890 5888 5887 5886 5884 5883 5881 5879
5876 5878 5881 5883 5885 5886 5887 5889 5890 5891 5892 5893 5894 5895 5896 5897 5898 5898 5899 5899 5898 5898 5898 5897 5896 5895 5895 5895 5895 5894 5894 5893 5892 5890 5889 5888 5886 5885 5883 5882 5880 5878 5876 5874
5869 5871 5873 5876 5879 5880 5881 5884 5886 5887 5888 5889 5890 5890 5892 5892 5893 5894 5894 5894 5893 5893 5893 5893 5892 5891 5890 5889 5890 5890 5889 5888 5887 5886 5885 5883 5882 5880 5879 5877 5875 5873 5871 5869
5863 5865 5868 5870 5873 5874 5876 5878 5880 5881 5883 5884 5885 5886 5887 5887 5888 5889 5889 5889 5888 5888 5888 5888 5887 5887 5886 5886 5885 5884 5883 5882 5882 5881 5880 5878 5877 5875 5874 5872 5870 5868 5866 5864
5857 5859 5861 5864 5866 5868 5870 5873 5874 5875 5877 5878 5879 5881 5882 5882 5883 5884 5884 5884 5883 5883 5883 5883 5882 5881 5881 5880 5879 5878 5877 5876 5876 5875 5874 5873 5871 5870 5868 5866 5864 5862 5860 5858
5850 5852 5854 5857 5860 5861 5866 5867 5868 5869 5871 5872 5873 5874 5875 5877 5878 5879 5879 5879 5878 5878 5878 5877 5876 5875 5875 5874 5873 5872 5870 5870 5870 5869 5868 5867 5865 5864 5862 5860 5858 5856 5854 5852
5842 5845 5846 5849 5851 5854 5858 5860 5861 5861 5863 5865 5866 5868 5869 5870 5872 5872 5873 5873 5872 5872 5871 5871 5870 5869 5868 5867 5867 5866 5864 5863 5863 5862 5861 5859 5858 5857 5855 5853 5851 5849 5847 5845
5834 5836 5839 5840 5842 5845 5851 5853 5853 5855 5856 5858 5859 5861 5862 5864 5865 5866 5867 5866 5865 5865 5864 5863 5862 5861 5861 5860 5859 5858 5857 5855 5855 5854 5853 5852 5851 5849 5848 5846 5844 5842 5840 5838
5825 5827 5829 5832 5834 5837 5842 5844 5846 5848 5850 5851 5852 5854 5855 5856 5858 5859 5859 5858 5858 5858 5857 5856 5855 5854 5853 5852 5851 5850 5849 5847 5847 5845 5844 5844 5843 5842 5840 5839 5837 5835 5833 5830
5817 5819 5821 5823 5825 5831 5833 5835 5838 5840 5841 5843 5844 5846 5847 5848 5849 5849 5850 5850 5850 5850 5850 5849 5848 5846 5846 5844 5843 5841 5840 5838 5837 5836 5836 5835 5834 5833 5832 5830 5829 5827 5824 5822
5808 5811 5813 5815 5819 5821 5823 5826 5828 5830 5832 5834 5835 5837 5839 5839 5840 5841 5841 5842 5842 5842 5841 5841 5840 5839 5837 5836 5834 5833 5831 5829 5828 5827 5827 5827 5826 5825 5824 5822 5821 5818 5816 5814
5799 5801 5804 5806 5808 5811 5814 5816 5819 5821 5824 5825 5827 5828 5830 5831 5832 5832 5833 5833 5833 5833 5833 5832 5831 5830 5829 5827 5825 5823 5822 5820 5820 5820 5819 5818 5817 5816 5815 5814 5812 5810 5808 5805
5791 5793 5794 5797 5799 5802 5805 5807 5810 5813 5815 5817 5818 5819 5821 5822 5822 5823 5824 5824 5824 5824 5824 5823 5822 5821 5820 5818 5817 5815 5813 5812 5811 5811 5810 5810 5809 5808 5807 5805 5804 5802 5800 5797
5782 5784 5786 5788 5791 5793 5797 5799 5801 5803 5806 5807 5809 5811 5812 5813 5813 5813 5814 5815 5815 5815 5815 5814 5814 5812 5811 5810 5808 5807 5805 5804 5803 5802 5802 5801 5800 5799 5798 5796 5795 5792 5790 5788